SCP
0 0 0 0 0 0 0 0 0 0 0 0 0 0 0 0 0 0 0 0 0 0 0 0 0 0 0 0 0 0 0 0 0 0 0 0 0 0 0 0 0 0 0 0 0 0 0 0 0
0 0 0 0 0 0 0 0 0 0 0 0 0 0 0 0 0 0 0 0 0 0 0 0 0 0 0 0 0 0 0 0 0 0 0 0 0 0 0 0 0 0 0 0 0 0 0 0 0
0 0 0 0 0 0 0 0 0 0 0 0 0 0 0 0 0 0 0 0 0 0 0 0 0 0 0 0 0 0 0 0 0 0 0 0 0 0 0 0 0 0 0 0 0 0 0 0 0
0 0 0 0 0 0 0 0 0 0 0 0 0 0 0 0 0 0 0 0 0 0 0 0 0 0 0 0 0 0 0 0 0 0 0 0 0 0 0 0 0 0 0 0 0 0 0 0 0
0 0 0 0 0 0 0 0 0 0 0 0 0 0 0 0 0 0 0 0 0 0 0 0 0 0 0 0 0 0 0 0 0 0 0 0 0 0 0 0 0 0 0 0 0 0 0 0 0
0 0 0 0 0 0 0 0 0 0 0 0 0 0 0 0 0 0 0 0 0 0 0 0 0 0 0 0 0 0 0 0 0 0 0 0 0 0 0 0 0 0 0 0 0 0 0 0 0
0 0 0 0 0 0 0 0 0 0 0 0 0 0 0 0 0 0 0 0 0 0 0 0 0 0 0 0 0 0 0 0 0 0 0 0 0 0 0 0 0 0 0 0 0 0 0 0 0
0 0 0 0 0 0 0 0 0 0 0 0 0 0 0 0 0 0 0 0 0 0 0 0 0 0 0 0 0 0 0 0 0 0 0 0 0 0 0 0 0 0 0 0 0 0 0 0 0
0 0 0 0 0 0 0 0 0 0 0 0 0 0 0 0 0 0 0 0 0 0 0 0 0 0 0 0 0 0 0 0 0 0 0 0 0 0 0 0 0 0 0 0 0 0 0 0 0
0 0 0 0 0 0 0 0 0 0 0 0 0 0 0 0 0 0 0 0 0 0 0 0 0 0 0 0 0 0 0 0 0 0 0 0 0 0 0 0 0 0 0 0 0 0 0 0 0
0 0 0 0 0 0 0 0 0 0 0 0 0 0 0 0 0 0 0 0 0 0 0 0 0 0 0 0 0 0 0 0 0 0 0 0 0 0 0 0 0 0 0 0 0 0 0 0 0
0 0 0 0 0 0 0 0 0 0 0 0 0 0 0 0 0 0 0 0 0 0 0 0 0 0 0 0 0 0 0 0 0 0 0 0 0 0 0 0 0 0 0 0 0 0 0 0 0
0 0 0 0 0 0 0 0 0 0 0 0 0 0 0 0 0 0 0 0 0 0 1 1 1 1 1 1 0 0 0 0 0 0 0 0 0 0 0 0 0 0 0 0 0 0 0 0 0
0 0 0 0 0 0 0 0 0 0 0 0 0 0 0 0 0 0 0 0 0 1 1 1 1 1 1 1 0 0 0 0 0 0 0 0 0 0 0 0 0 0 0 0 0 0 0 0 0
0 0 0 0 0 0 0 0 0 0 0 0 0 0 0 0 0 0 0 0 0 1 1 1 1 1 1 1 0 0 0 0 0 0 0 0 0 0 0 0 0 0 0 0 0 0 0 0 0
0 0 0 0 0 0 0 0 0 0 0 0 0 0 0 0 0 0 0 0 1 1 1 1 1 1 1 1 1 0 0 0 0 0 0 0 0 0 0 0 0 0 0 0 0 0 0 0 0
0 0 0 0 0 0 0 0 0 0 0 0 0 0 0 0 0 0 0 0 1 1 1 1 1 1 1 1 1 0 0 0 0 0 0 0 0 0 0 0 0 0 0 0 0 0 0 0 0
0 0 0 0 0 0 0 0 0 0 0 0 0 0 0 0 0 0 0 1 1 1 1 1 1 1 1 1 1 0 0 0 0 0 0 0 0 0 0 0 0 0 0 0 0 0 0 0 0
0 0 0 0 0 0 0 0 0 0 0 0 0 0 0 0 0 0 0 1 1 1 1 1 1 1 1 1 1 0 0 0 0 0 0 0 0 0 0 0 0 0 0 0 0 0 0 0 0
0 0 0 0 0 0 0 0 0 0 0 0 0 0 0 0 0 0 1 1 1 1 1 1 1 1 1 1 1 1 0 0 0 0 0 0 0 0 0 0 0 0 0 0 0 0 0 0 0
0 0 0 0 0 0 0 0 0 0 0 0 0 0 0 0 0 0 0 1 1 1 1 1 1 1 1 1 1 1 1 0 0 0 0 0 0 0 0 0 0 0 0 0 0 0 0 0 0
0 0 0 0 0 0 0 0 0 0 0 0 0 0 0 0 0 0 0 0 1 1 1 1 1 1 1 1 1 1 1 0 0 0 0 0 0 0 0 0 0 0 0 0 0 0 0 0 0
0 0 0 0 0 0 0 0 0 0 0 0 0 0 0 0 0 0 0 0 1 1 1 1 1 1 1 1 1 1 1 0 0 0 0 0 0 0 0 0 0 0 0 0 0 0 0 0 0
0 0 0 0 0 0 0 0 0 0 0 0 0 0 0 0 0 0 0 0 0 1 1 1 1 1 1 1 1 1 1 0 0 0 0 0 0 0 0 0 0 0 0 0 0 0 0 0 0
0 0 0 0 0 0 0 0 0 0 0 0 0 0 0 0 0 0 0 0 0 0 1 1 1 1 1 1 1 1 1 1 0 0 0 0 0 0 0 0 0 0 0 0 0 0 0 0 0
0 0 0 0 0 0 0 0 0 0 0 0 0 0 0 0 0 0 0 0 0 0 0 1 1 1 1 1 1 1 1 1 0 0 0 0 0 0 0 0 0 0 0 0 0 0 0 0 0
0 0 0 0 0 0 0 0 0 0 0 0 0 0 0 0 0 0 0 0 0 0 0 1 1 1 1 1 1 1 1 0 0 0 0 0 0 0 0 0 0 0 0 0 0 0 0 0 0
0 0 0 0 0 0 0 0 0 0 0 0 0 0 0 0 0 0 0 0 1 1 1 1 1 1 1 1 1 1 1 0 0 0 0 0 0 0 0 0 0 0 0 0 0 0 0 0 0
0 0 0 0 0 0 0 0 0 0 0 0 0 0 0 0 0 0 0 0 0 1 1 1 1 1 1 1 1 1 1 0 0 0 0 0 0 0 0 0 0 0 0 0 0 0 0 0 0
0 0 0 0 0 0 0 0 0 0 0 0 0 0 0 0 0 0 0 0 0 0 1 1 1 1 1 1 1 1 1 0 0 0 0 0 0 0 0 0 0 0 0 0 0 0 0 0 0
Wind_Speed
9 8 7 6 8 3 4 5 3 4 4 4 4 3 4 6 6 7 7 8 9 10 12 12 9 8 8 8 8 8 8 8 8 8 7 7 7 7 7 7 7 7 7 7 7 7 7 8 8
6 6 7 7 6 3 5 5 4 5 5 3 3 1 3 6 6 8 8 9 10 10 10 10 10 8 8 8 7 8 8 8 8 8 7 7 6 7 7 7 7 7 7 7 7 7 7 7 7
6 7 7 5 1 2 6 5 5 5 3 1 2 2 3 5 5 6 8 11 10 10 10 11 10 9 8 8 8 7 8 8 8 8 7 7 6 6 6 7 7 7 7 7 7 7 6 6 6
6 7 7 4 3 4 4 4 3 3 3 2 2 4 5 5 4 7 11 11 11 10 10 12 9 9 8 8 7 7 7 7 7 7 7 6 6 6 6 6 6 7 6 7 7 6 6 6 6
7 6 6 4 3 3 2 2 1 1 2 3 1 4 6 6 7 11 12 11 10 10 9 12 9 8 7 7 6 6 7 6 6 6 6 6 5 5 6 6 6 6 6 6 6 6 6 6 6
6 6 5 4 5 3 2 1 2 2 3 3 3 4 6 7 8 10 11 10 10 9 9 11 10 8 7 6 5 6 6 6 6 6 6 6 6 6 6 5 5 5 5 6 6 5 5 5 5
7 5 4 3 4 3 3 1 1 1 2 2 1 4 7 8 8 10 10 10 9 9 8 9 10 9 8 7 6 6 6 6 6 6 6 6 6 5 5 5 5 5 5 5 5 5 5 5 5
6 5 5 4 4 3 4 2 0 1 1 3 1 2 6 10 9 10 10 9 9 8 7 8 7 7 7 8 7 6 6 6 6 6 6 5 5 5 5 5 5 5 5 4 4 4 4 4 5
7 8 6 4 3 3 3 2 2 1 2 2 2 4 7 13 12 11 10 9 8 7 7 7 7 6 6 6 8 7 7 6 6 7 6 5 4 4 5 5 6 5 4 4 3 3 3 4 6
7 7 4 1 1 1 2 1 1 3 4 4 4 6 10 12 12 12 11 10 9 8 7 6 6 6 6 5 6 4 5 5 4 4 5 3 2 1 2 7 6 4 4 4 4 3 6 7 4
6 5 2 2 1 1 2 2 2 4 3 2 3 8 11 12 11 11 10 10 9 9 7 7 6 5 5 4 4 3 2 3 4 4 3 2 2 2 2 3 4 4 4 3 5 6 3 2 1
6 3 3 2 1 3 3 3 3 3 2 2 2 7 11 11 11 10 10 9 9 8 8 7 6 5 4 3 3 3 2 2 2 3 3 2 2 1 1 1 1 2 1 1 2 1 1 1 2
8 4 3 3 3 3 3 4 4 4 2 2 3 7 10 10 10 9 8 8 8 8 8 7 6 5 4 3 2 2 2 1 1 2 2 2 2 2 1 1 1 1 1 2 2 1 1 2 2
4 4 4 4 4 4 4 4 5 4 2 3 5 7 9 9 8 8 8 8 8 8 8 8 7 6 5 4 3 2 2 2 2 1 2 2 1 1 2 2 1 1 1 1 1 1 2 2 1
5 6 7 6 6 5 5 6 6 4 3 4 5 6 7 8 8 8 8 8 8 8 8 7 7 6 5 4 4 3 2 2 2 1 2 2 2 2 2 2 2 1 1 2 2 2 2 2 2
8 10 9 5 4 4 8 6 2 3 5 5 6 6 7 8 8 8 7 7 7 7 7 7 6 6 5 4 3 2 1 2 1 1 1 2 2 2 3 2 2 1 2 2 2 2 2 2 2
11 11 9 5 4 4 7 5 1 2 5 5 6 7 7 8 8 7 7 7 7 7 7 7 6 6 5 5 3 2 2 1 1 1 1 1 2 2 2 2 1 3 2 2 3 2 2 2 2
8 9 7 6 4 5 7 6 3 3 4 5 6 7 7 7 7 7 7 7 7 7 7 7 6 5 5 4 3 2 2 2 2 1 1 1 1 2 2 2 1 3 2 2 2 2 2 2 2
6 8 7 5 3 5 6 6 4 4 5 6 6 6 7 6 6 7 7 7 8 8 8 7 7 6 4 3 3 3 2 2 2 1 1 1 1 2 2 2 1 2 2 2 2 3 3 3 2
9 9 8 5 3 5 5 6 5 4 5 5 5 6 6 6 7 7 8 9 9 9 8 8 7 7 5 4 3 2 1 2 2 1 2 1 1 2 2 2 2 2 2 2 2 3 3 2 2
10 10 8 5 4 7 7 8 6 4 4 5 6 6 6 7 8 8 9 9 9 9 9 7 7 7 5 5 4 3 2 2 2 1 2 1 2 2 2 2 2 2 3 2 2 3 4 3 3
10 8 7 8 9 7 7 7 4 4 4 5 5 6 7 7 8 8 9 10 9 9 8 8 8 7 5 5 4 4 2 1 1 1 1 1 2 2 2 3 3 3 2 2 4 3 3 4 3
7 5 8 10 11 10 9 10 4 5 5 4 4 4 5 6 7 8 8 8 8 8 7 7 7 7 6 5 4 3 2 1 1 1 1 2 2 2 2 3 3 3 3 2 3 2 3 3 3
6 7 8 9 10 12 10 10 6 3 4 3 3 3 4 5 5 6 7 7 7 7 7 7 7 6 6 6 5 4 3 2 1 2 1 2 2 2 3 3 3 3 3 3 3 3 4 3 3
11 10 8 9 10 8 5 7 4 1 2 3 2 3 4 4 5 6 7 7 6 7 7 7 7 7 6 6 5 4 4 4 3 3 2 2 2 2 3 3 3 4 3 4 4 4 4 4 4
11 13 9 7 7 5 6 7 2 1 1 1 2 3 4 5 5 6 6 6 6 6 6 7 7 7 6 6 5 4 4 3 3 3 2 2 2 2 2 4 4 4 4 4 4 4 4 4 5
10 11 9 9 9 8 6 4 4 4 3 2 3 4 4 5 5 5 5 5 5 5 5 6 7 6 6 6 5 5 4 3 2 3 3 2 2 2 2 4 4 4 4 4 4 3 4 4 4
9 8 7 9 8 9 8 9 5 5 3 3 3 3 3 4 5 5 5 4 4 4 4 4 5 6 6 6 5 4 4 4 3 3 3 2 2 2 2 3 4 4 4 4 4 4 4 4 4
9 10 9 8 8 8 7 3 3 3 2 1 2 2 3 3 4 4 4 3 4 4 4 4 3 4 5 5 4 4 4 4 4 3 3 3 2 2 3 3 3 4 4 4 4 4 4 4 4
11 11 11 9 8 9 8 1 5 3 2 1 1 1 1 2 2 3 3 3 3 3 3 3 2 3 3 4 5 5 4 4 4 3 3 3 3 3 3 3 3 3 4 4 4 4 4 4 4
Wind_Direction
193 203 224 236 234 206 97 90 71 85 77 57 51 31 32 29 21 64 96 125 126 130 130 140 137 137 133 130 129 128 124 121 118 114 110 108 105 102 102 101 103 107 109 110 110 113 114 111 110
203 213 230 238 248 158 102 83 83 63 71 92 110 83 69 67 53 93 119 129 135 131 135 134 132 136 133 127 126 127 126 123 121 117 112 108 104 102 103 104 103 103 106 109 112 109 109 114 116
214 236 255 244 241 60 86 84 85 86 100 135 115 72 44 66 93 109 122 139 137 131 133 125 138 138 134 131 125 126 125 122 121 121 116 110 105 102 103 108 108 106 104 105 109 111 107 108 115
227 223 235 239 123 67 60 78 96 128 126 115 135 104 87 60 85 113 131 141 138 139 139 128 143 139 138 135 131 129 128 124 122 121 118 113 109 110 110 111 112 110 107 105 106 108 111 111 113
239 247 223 186 128 91 73 72 171 162 123 115 138 105 98 83 101 123 138 143 142 139 137 133 142 140 139 137 135 131 128 125 122 120 117 112 111 114 115 114 114 113 113 110 107 105 107 111 113
235 241 227 179 134 118 98 133 196 175 129 130 145 124 96 110 127 135 143 146 142 140 138 132 142 144 143 138 136 143 136 127 121 117 114 110 112 115 118 116 116 115 115 110 107 106 108 108 111
260 251 238 184 151 138 95 109 223 192 154 124 125 120 116 132 134 143 145 145 141 140 139 141 150 152 151 142 133 137 137 133 125 120 114 112 116 121 125 121 116 120 118 113 110 112 113 119 115
272 255 217 205 189 132 108 124 69 297 121 101 166 127 127 138 144 147 146 145 142 144 145 144 149 150 160 154 145 133 134 134 130 128 126 130 137 136 136 140 116 117 117 118 117 120 129 127 130
248 242 221 208 206 136 132 161 134 126 141 125 76 54 103 136 148 150 148 150 148 151 150 150 152 155 159 150 142 154 152 148 160 151 144 171 164 151 157 112 110 115 113 117 121 136 154 164 156
234 236 225 294 315 143 160 193 182 192 187 166 136 107 125 147 157 161 161 162 161 162 161 157 156 155 159 153 148 169 169 156 179 152 161 172 143 138 129 117 128 131 138 151 149 176 199 216 175
231 243 235 225 267 255 222 228 243 237 220 210 172 149 152 162 169 172 170 167 167 163 164 162 160 160 163 155 159 160 157 157 175 160 171 169 170 161 166 153 158 169 183 185 168 197 209 194 175
221 231 256 252 227 231 239 241 244 258 285 349 165 156 163 174 179 180 175 170 167 165 168 164 163 165 170 161 159 168 164 162 170 158 191 178 181 180 166 192 168 187 182 188 223 206 165 187 196
218 214 216 228 237 247 237 239 252 259 266 239 170 167 173 181 182 181 176 170 169 170 171 169 171 168 168 167 178 164 164 167 157 175 178 199 184 187 194 195 219 228 194 194 224 209 172 205 197
210 220 228 229 226 220 225 238 243 246 217 197 186 183 184 183 181 177 176 177 176 175 175 170 175 169 170 172 173 167 167 172 197 192 177 207 212 194 214 215 220 229 228 238 238 210 208 218 205
215 222 222 220 225 223 232 236 237 233 201 202 196 190 189 188 185 185 183 181 179 177 172 173 173 167 175 180 179 173 177 186 198 188 186 207 225 212 228 221 223 208 208 204 227 217 220 212 205
214 223 219 184 212 210 240 245 183 185 209 209 198 193 193 191 193 191 187 183 180 175 168 173 172 165 167 169 177 180 184 179 195 190 185 202 230 229 238 229 231 221 227 217 208 226 218 209 224
212 225 222 183 194 212 235 260 187 199 219 218 204 198 195 191 192 188 189 182 175 169 166 168 168 166 167 163 165 173 163 178 188 176 191 192 211 214 233 237 231 236 232 226 234 201 233 209 225
214 224 222 220 178 217 235 252 253 229 228 223 212 204 197 194 191 184 184 178 170 166 164 163 165 164 167 163 164 174 171 183 184 174 172 198 199 199 230 220 216 243 231 227 229 226 229 237 224
245 241 233 227 208 240 244 256 260 248 230 225 218 208 200 196 190 181 178 177 170 168 168 167 169 162 167 164 177 178 178 188 178 173 156 195 213 202 225 250 195 236 227 239 231 231 207 215 205
228 233 226 206 190 246 255 262 259 250 236 232 226 216 209 199 186 181 178 177 173 170 169 171 173 167 172 160 171 177 183 194 181 167 150 197 211 219 217 236 232 214 214 217 237 241 240 215 202
225 235 234 226 220 227 245 247 232 213 217 224 227 221 214 208 194 183 182 182 176 173 172 171 170 167 171 164 159 154 162 179 168 186 173 200 224 218 248 230 240 224 229 210 226 229 237 230 211
229 225 238 237 242 237 237 259 226 218 217 225 226 217 212 207 198 185 181 179 179 177 173 170 167 165 164 165 159 162 162 159 159 260 196 199 208 224 223 225 225 236 242 225 233 218 238 236 223
238 226 234 242 249 255 238 254 232 206 233 226 214 215 206 200 195 185 181 175 174 173 172 167 166 165 164 166 163 172 161 156 168 222 224 234 203 216 229 224 224 231 243 241 246 228 238 239 243
212 214 225 236 241 245 241 252 249 219 241 226 192 187 187 186 184 176 171 167 170 169 169 165 161 163 166 170 168 172 165 170 181 219 236 230 210 216 222 227 227 234 241 233 236 231 227 244 249
210 216 220 219 220 234 214 244 253 257 250 237 204 182 174 178 177 173 165 164 165 168 169 167 167 167 168 168 171 175 180 188 200 225 223 248 233 225 227 235 231 237 238 234 231 226 238 235 235
215 229 242 251 245 236 197 233 215 153 218 209 177 172 162 173 179 174 164 165 163 165 167 171 173 172 174 175 178 183 194 208 200 212 245 235 252 242 229 235 233 234 236 234 230 229 230 229 229
218 227 250 265 264 256 227 220 208 200 195 181 158 161 164 169 176 167 161 165 160 161 165 174 176 177 180 183 185 190 196 217 217 214 228 235 247 244 223 232 232 234 231 232 229 231 227 231 231
243 231 226 241 248 250 232 229 222 187 192 170 153 161 159 168 164 160 161 162 159 157 160 172 175 183 185 190 196 191 199 209 214 222 221 245 251 255 235 232 225 225 225 227 229 230 221 227 229
207 216 230 240 255 262 252 219 91 164 189 198 155 146 154 163 163 162 158 157 159 156 156 162 171 182 191 195 195 201 205 208 213 217 220 231 242 240 229 232 233 221 220 219 224 236 224 225 224
227 227 224 236 237 249 266 223 95 114 124 115 91 102 136 156 158 155 152 160 168 165 161 164 174 183 195 197 197 202 208 210 215 215 221 226 230 235 227 226 235 231 224 221 223 233 228 226 225